Retour au catalogue

SCOUT A R/B

ActifPO
NORAD 3137·ROCKET BODY·🇺🇸 United States

Lancé Mar 2, 1968 depuis Vandenberg Space Force Base

Loading…

Prochains Passages (prochaines 24 heures)

TLE

FraisSource: Space-Track

Époque: Sep 14, 2026, 08:53 UTC

1 03137U 68012B   26257.37074602  .00000142  00000-0  20284-3 0  9998
2 03137  90.0224 273.7422 0075576 171.7059 188.5362 13.50375293880827

Suivez SCOUT A R/B en temps réel avec AllMySat

Download on the App Store